{"data":{"norad_id":69342,"intl_designator":"2026-122P","name":"STARLINK-37782","alt_names":[],"object_type":"PAYLOAD","status":"ACTIVE","operator":null,"country":"US","launch_date":"2026-06-03","launch_site_code":"AFWTR","launch_vehicle":null,"mission":null,"orbit_class":"UNKNOWN","rcs_meters":null,"size_class":null,"mass_kg":null,"dimensions":null,"purposes":["comms"],"wikipedia_slug":null,"has_3d_model":false,"image_url":null,"decayed_at":null,"tle_current":{"epoch":"2026-09-19T00:36:25.426656Z","epoch_age_seconds":156315,"freshness":"FRESH","line1":"1 69342U 26122P   26262.02529429  .00013757  00000+0  42761-3 0  9993","line2":"2 69342  97.2841 290.6718 0000758 112.1747 247.9576 15.33449543 16573","mean_motion":15.33449543,"eccentricity":7.58e-5,"inclination_deg":97.2841,"raan_deg":290.6718,"arg_perigee_deg":112.1747,"mean_anomaly_deg":247.9576,"bstar":0.00042761,"rev_number":1657,"period_min":93.905926450167,"perigee_km":465.01090780712,"apogee_km":466.04840767243,"semimajor_km":6843.6666577398,"source":"CELESTRAK","updated_at":"2026-09-20T09:00:44.161728Z"}}}